TimeCDT,TemperatureF,Dew PointF,Humidity,Sea Level PressureIn,VisibilityMPH,Wind Direction,Wind SpeedMPH,Gust SpeedMPH,PrecipitationIn,Events,Conditions,WindDirDegrees,DateUTC
12:53 AM,73.0,66.9,81,29.99,10.0,South,3.5,-,N/A,,Clear,170,2012-10-06 05:53:00
1:53 AM,72.0,66.9,84,29.99,10.0,South,4.6,-,N/A,,Clear,170,2012-10-06 06:53:00
2:53 AM,70.0,66.0,87,29.99,10.0,SSE,3.5,-,N/A,,Clear,160,2012-10-06 07:53:00
3:53 AM,70.0,66.9,90,30.00,10.0,North,4.6,-,N/A,,Partly Cloudy,350,2012-10-06 08:53:00
4:27 AM,71.6,66.2,83,30.01,10.0,Calm,Calm,-,N/A,,Overcast,0,2012-10-06 09:27:00
4:53 AM,72.0,68.0,87,30.00,10.0,Calm,Calm,-,N/A,,Overcast,0,2012-10-06 09:53:00
5:16 AM,71.6,66.2,83,30.02,10.0,North,4.6,-,N/A,,Mostly Cloudy,360,2012-10-06 10:16:00
5:24 AM,71.6,66.2,83,30.03,10.0,NNE,5.8,-,N/A,,Mostly Cloudy,20,2012-10-06 10:24:00
5:53 AM,69.1,63.0,81,30.02,10.0,NNE,11.5,-,N/A,,Overcast,30,2012-10-06 10:53:00
6:21 AM,68.0,62.6,83,30.03,10.0,NNE,11.5,-,N/A,,Scattered Clouds,30,2012-10-06 11:21:00
6:53 AM,66.0,60.1,81,30.03,10.0,NNE,9.2,-,N/A,,Mostly Cloudy,30,2012-10-06 11:53:00
7:53 AM,64.9,59.0,81,30.04,10.0,North,9.2,-,N/A,,Scattered Clouds,10,2012-10-06 12:53:00
8:53 AM,66.2,57.2,73,30.08,10.0,North,9.2,-,N/A,,Clear,360,2012-10-06 13:53:00
9:44 AM,68.0,57.2,68,30.08,10.0,NE,8.1,-,N/A,,Mostly Cloudy,40,2012-10-06 14:44:00
9:53 AM,69.1,57.9,68,30.07,10.0,NE,6.9,-,N/A,,Mostly Cloudy,40,2012-10-06 14:53:00
10:01 AM,69.8,57.2,64,30.08,10.0,NNE,9.2,-,N/A,,Mostly Cloudy,30,2012-10-06 15:01:00
10:11 AM,69.8,57.2,64,30.08,10.0,NNE,9.2,-,N/A,,Mostly Cloudy,20,2012-10-06 15:11:00
10:31 AM,69.8,59.0,68,30.08,10.0,NE,5.8,-,N/A,,Scattered Clouds,50,2012-10-06 15:31:00
10:38 AM,71.6,59.0,64,30.08,10.0,North,10.4,27.6,N/A,,Mostly Cloudy,360,2012-10-06 15:38:00
10:53 AM,72.0,59.0,64,30.07,10.0,NNE,8.1,-,N/A,,Scattered Clouds,30,2012-10-06 15:53:00
11:01 AM,71.6,59.0,64,30.08,10.0,Variable,6.9,16.1,N/A,,Mostly Cloudy,0,2012-10-06 16:01:00
11:11 AM,71.6,59.0,64,30.08,10.0,NNE,8.1,-,N/A,,Partly Cloudy,20,2012-10-06 16:11:00
11:53 AM,73.9,60.1,62,30.06,10.0,NE,6.9,-,N/A,,Mostly Cloudy,50,2012-10-06 16:53:00
12:46 PM,77.0,60.8,57,30.06,10.0,Variable,6.9,-,N/A,,Scattered Clouds,0,2012-10-06 17:46:00
12:53 PM,77.0,62.1,60,30.05,10.0,North,6.9,-,N/A,,Mostly Cloudy,10,2012-10-06 17:53:00
1:53 PM,75.9,62.1,62,30.03,10.0,North,10.4,18.4,N/A,,Overcast,350,2012-10-06 18:53:00
2:22 PM,73.4,60.8,65,30.03,10.0,NNW,10.4,-,N/A,,Overcast,340,2012-10-06 19:22:00
2:53 PM,75.9,61.0,60,30.01,10.0,North,10.4,-,N/A,,Scattered Clouds,350,2012-10-06 19:53:00
3:53 PM,75.0,61.0,62,30.01,10.0,North,13.8,-,N/A,,Clear,360,2012-10-06 20:53:00
4:53 PM,73.0,60.1,64,30.01,10.0,North,11.5,-,N/A,,Partly Cloudy,350,2012-10-06 21:53:00
5:53 PM,68.0,59.0,73,30.01,10.0,North,12.7,-,N/A,,Overcast,360,2012-10-06 22:53:00
6:16 PM,68.0,59.0,73,30.03,10.0,North,15.0,-,N/A,,Overcast,360,2012-10-06 23:16:00
6:53 PM,66.0,59.0,78,30.04,9.0,North,15.0,-,N/A,,Overcast,360,2012-10-06 23:53:00
7:53 PM,64.0,57.9,80,30.05,10.0,North,16.1,-,N/A,,Overcast,360,2012-10-07 00:53:00
8:53 PM,63.0,55.9,78,30.08,10.0,North,12.7,-,N/A,,Overcast,10,2012-10-07 01:53:00
9:17 PM,62.6,55.4,77,30.10,10.0,NNE,13.8,-,N/A,,Overcast,30,2012-10-07 02:17:00
9:53 PM,62.1,55.0,78,30.09,10.0,North,9.2,19.6,N/A,,Overcast,10,2012-10-07 02:53:00
10:53 PM,57.9,53.1,84,30.12,10.0,NNE,18.4,25.3,N/A,,Overcast,30,2012-10-07 03:53:00
11:53 PM,57.0,50.0,77,30.13,10.0,NNE,18.4,25.3,N/A,,Overcast,20,2012-10-07 04:53:00